Georgetown, DE

5:38 PM EST on December 06, 2016 (GMT -0500)
Sussex County

Weather History for KGED - January, 2013

Change the Weather History Date:

Tuesday, January 8, 2013

  Actual Average Record
Temperature  
Mean Temperature 41 °F 35 °F  
Max Temperature 56 °F 43 °F 69 °F (2008)
Min Temperature 26 °F 27 °F 10 °F (1970)
Degree Days  
Heating Degree Days 24 30  
Month to date heating degree days 218 237  
Since 1 July heating degree days 1632 1819  
Cooling Degree Days 0 0  
Month to date cooling degree days 0 0  
Year to date cooling degree days 0 0  
Moisture  
Dew Point 30 °F    
Average Humidity 65    
Maximum Humidity 92    
Minimum Humidity 38    
Precipitation  
Precipitation 0.00 in 0.10 in 0.98 in (1976)
Month to date precipitation T 0.76  
Year to date precipitation T 0.76  
Sea Level Pressure  
Sea Level Pressure 30.42 in    
Wind  
Wind Speed 4 mph (SW)    
Max Wind Speed 16 mph    
Max Gust Speed 21 mph    
Visibility 9 miles    
Events      
T = Trace of Precipitation, MM = Missing Value Source: NWS Daily Summary

Daily Weather History Graph

Daily Weather History Graph

Search for Another Location

Airport or City:

Trip Planner

Search our weather history database for the weather conditions in past years. The results will help you decide how hot, cold, wet, or windy it might be!

Date:

Astronomy

Jan. 08, 2013 Rise Set
Actual Time 7:19 AM EST 4:57 PM EST
Civil Twilight 6:50 AM EST 5:26 PM EST
Nautical Twilight 6:17 AM EST 5:59 PM EST
Astronomical Twilight 5:45 AM EST 6:31 PM EST
Moon 3:50 AM EST (1/8) 1:57 PM EST (1/8)
Length of Visible Light 10h 36m
Length of Day
9h 37m
Waning Crescent, 14% of the Moon is Illuminated
Jan 8
Waning Crescent
Jan 11
New
Jan 18
First Quarter
Jan 26
Full
Feb 3
Last Quarter

Hourly Weather History & Observations

Time (EST) Temp. Windchill Dew Point Humidity Pressure Visibility Wind Dir Wind Speed Gust Speed Precip Events Conditions
1:54 AM 28.0 °F - 24.1 °F 85% 30.43 in 7.0 mi Calm Calm - N/A   Clear
2:54 AM 28.0 °F - 24.1 °F 85% 30.43 in 7.0 mi Calm Calm - N/A   Clear
3:54 AM 30.0 °F - 25.0 °F 82% 30.42 in 7.0 mi Calm Calm - N/A   Clear
4:54 AM 28.9 °F 25.2 °F 27.0 °F 92% 30.42 in 7.0 mi South 3.5 mph - N/A   Clear
5:54 AM 30.9 °F - 26.1 °F 82% 30.44 in 8.0 mi Calm Calm - N/A   Clear
6:54 AM 28.9 °F - 25.0 °F 85% 30.45 in 7.0 mi Calm Calm - N/A   Clear
7:54 AM 28.0 °F - 26.1 °F 92% 30.47 in 5.0 mi Calm Calm - N/A   Clear
9:54 AM 45.0 °F 41.8 °F 34.0 °F 65% 30.46 in 10.0 mi SSW 5.8 mph - N/A   Clear
10:54 AM 48.9 °F - 32.0 °F 52% 30.45 in 10.0 mi WSW 12.7 mph - N/A   Clear
11:54 AM 52.0 °F - 32.0 °F 47% 30.40 in 10.0 mi SSW 11.5 mph - N/A   Clear
12:54 PM 54.0 °F - 30.9 °F 41% 30.40 in 10.0 mi SW 13.8 mph - N/A   Clear
1:54 PM 55.0 °F - 30.0 °F 38% 30.38 in 10.0 mi WSW 9.2 mph - N/A   Clear
2:54 PM 54.0 °F - 30.9 °F 41% 30.40 in 10.0 mi West 11.5 mph - N/A   Scattered Clouds
3:54 PM 52.0 °F - 30.9 °F 45% 30.41 in 10.0 mi West 8.1 mph - N/A   Mostly Cloudy
4:54 PM 50.0 °F - 30.9 °F 48% 30.42 in 10.0 mi WSW 3.5 mph - N/A   Overcast
5:54 PM 48.0 °F - 32.0 °F 54% 30.41 in 10.0 mi South 3.5 mph - N/A   Overcast
6:54 PM 46.0 °F - 32.0 °F 58% 30.41 in 10.0 mi Calm Calm - N/A   Overcast
7:54 PM 46.9 °F - 33.1 °F 59% 30.42 in 10.0 mi Calm Calm - N/A   Overcast
8:54 PM 45.0 °F - 34.0 °F 65% 30.40 in 10.0 mi Calm Calm - N/A   Overcast
9:54 PM 45.0 °F - 32.0 °F 60% 30.41 in 10.0 mi Calm Calm - N/A   Overcast
10:50 PM 44.6 °F - 35.6 °F 71% 30.40 in 10.0 mi Calm Calm - N/A   Overcast
11:54 PM 44.1 °F - 35.1 °F 71% 30.40 in 10.0 mi Calm Calm - N/A   Overcast